User: anonymous
Location: Unspecified
(0.0000°N, 0.0000°E)
Time: 21:23:38
(UTC+00:00)
Language:

NOAA 17 - Orbit

View from above orbital plane
View from above orbital plane
View from above satellite
View from above satellite

Ground track
Ground track

The orbit data is extracted from the following two-line orbital elements,

1 27453U 02032A   14111.44874018  .00000432  00000-0  20292-3 0  2970
2 27453 098.3130 114.1462 0011579 347.7592 012.3792 14.24738178614613
Epoch (UTC): 21 April 2014 10:46:11
Eccentricity: 0.0011579
inclination: 98.3130°
perigee height: 801 km
apogee height: 817 km
right ascension of ascending node: 114.1462°
argument of perigee: 347.7592°
revolutions per day: 14.24738178
mean anomaly at epoch: 12.3792°
orbit number at epoch: 61461

The dashed part of the orbit path shows where the satellite is in the earth's shadow,  

DLR